Regional Weather Roundup
Issued by NWS New Orleans/Baton Rouge, LA

Home | Current Version | Previous Version | Text Only | Print | Product List | Glossary On
Versions: 1 2 3 4 5 6 7 8 9 10 11 12 13 14 15 16 17 18 19 20 21 22 23 24 25 26 27 28 29 30 31 32 33 34 35 36 37 38 39 40 41 42 43 44 45 46 47 48 49 50
724
ASUS44 KLIX 070110
RWRLIX
NEW ORLEANS REGIONAL WEATHER ROUNDUP
NATIONAL WEATHER SERVICE NEW ORLEANS LA
700 PM CST SAT FEB 06 2016

NOTE: "FAIR" INDICATES FEW OR NO CLOUDS BELOW 12,000 FEET WITH NO
      SIGNIFICANT WEATHER AND/OR OBSTRUCTIONS TO VISIBILITY.
      SKY/WX - SKY CONDITION AND SIGNIFICANT WEATHER.
      TMP - AIR TEMPERATURE.     DP    - DEWPOINT TEMPERATURE.
      RH  - RELATIVE HUMIDITY.   PRES  - PRESSURE.
      HI  - HEAT INDEX.          WCI   - WIND CHILL INDEX.

*  THESE STATIONS ARE NOT NWS OR FAA STATIONS AND ARE NOT UNDER
   NWS QUALITY CONTROL.

LAZ038-040-048-061>063-065>067-069-070200-
SOUTHEAST LOUISIANA

CITY           SKY/WX    TMP DP  RH WIND       PRES   REMARKS
N.O. AUDUBON   NOT AVBL
N.O. INTL ARPT MOCLDY    49  26  41 W3        30.27R
N.O. LAKEFRONT PTCLDY    51  28  41 NW3       30.28R
N.O. DOWNTOWN*   N/A     54  18  24 MISG      30.28R
RESERVE*       MOCLDY    49  31  50 CALM      30.28R
SLIDELL        PTCLDY    48  32  53 CALM      30.27R
BATON ROUGE    PTCLDY    51  20  29 NW3       30.29R
BOOTHVILLE     CLOUDY    49  34  56 CALM      30.27S
BELLE CHASSE   CLOUDY    50  31  48 CALM      30.27R
BOGALUSA*        N/A     45  31  57 CALM      30.29R
GALLIANO*      CLOUDY    52  34  50 CALM      30.27R
NEW ROADS*       N/A     46  33  60 CALM      30.30R
GONZALES*        N/A     47  32  56 CALM      30.28R
HAMMOND*       PTCLDY    43  32  65 CALM      30.28R
HOUMA*         MOCLDY    47  33  58 NE3       30.28R
PORT FOURCHON* MOCLDY    52  34  50 E8        30.27R

$$

MSZ070-080>082-070200-
SOUTHERN MISSISSIPPI

CITY           SKY/WX    TMP DP  RH WIND       PRES   REMARKS
MCCOMB         CLEAR     44  29  55 N3        30.27R
GULFPORT       PTCLDY    48  32  53 W6        30.26R
BILOXI         CLOUDY    48  35  60 W3        30.26R
PASCAGOULA     CLEAR     44  35  70 CALM      30.26R
STENNIS ARPT*  PTCLDY    48  27  43 CALM      30.27R

$$

COASTAL OBSERVATIONS
LAKE AND NEARSHORE STATIONS

STATION/POSITION TIME  TEMP    WIND        PRES    WAVE
                       AIR SEA DIR/SP/G            HT/PER
                 (UTC) (F)     (DEG/KT/KT) (MB)    (FT/S)
PASCAGOULA       0000   50     270/  5/  7 1023.7
WAVELAND YACHT   0000   50 54  230/  3/  5 1024.3
GRAND ISLE       0000   52 56   60/  5/  7 1024.7
NEW CANAL        0000   53 54   CALM  /  1 1023.8
SHELL BEACH      0000   52 56  180/  1/  1 1024.2

OFFSHORE STATIONS

STATION/POSITION TIME  TEMP    WIND        PRES    WAVE
                       AIR SEA DIR/SP/G            HT/PER
                 (UTC) (F)     (DEG/KT/KT) (MB)    (FT/S)

$$





USA.gov is the U.S. government's official web portal to all federal, state and local government web resources and services.